DW2640 Weather Reports


Display with metric or nautical units.
time (UTC)temp
F
wind
direction
speed
MPH
gust
MPH
rain 1hr
in
rain 24hr
in
rain mn
in
humidity
%
barometer
mb
20260901051538 81 171 2.0 5.0 0.00 0.00 0.00 54 1011.7
20260901050036 81 171 3.0 5.0 0.00 0.00 0.00 53 1011.7
20260901044552 82 177 3.0 6.0 0.00 0.00 0.00 53 1011.5
20260901043040 82 174 1.0 5.0 0.00 0.00 0.00 52 1011.7
20260901041535 83 183 3.0 6.0 0.00 0.00 0.00 51 1011.5
20260901040033 83 163 2.0 6.0 0.00 0.00 0.00 50 1011.6
20260901034533 84 175 2.0 7.0 0.00 0.00 0.00 49 1011.2
20260901033039 85 212 4.0 8.0 0.00 0.00 0.00 48 1011.1
20260901031535 85 153 5.0 9.0 0.00 0.00 0.00 47 1010.9
20260901030030 86 170 4.0 8.0 0.00 0.00 0.00 47 1010.6
20260901024530 87 184 4.0 8.0 0.00 0.00 0.00 46 1010.6
20260901023032 87 178 4.0 9.0 0.00 0.00 0.00 45 1010.3
20260901021536 88 144 5.0 7.0 0.00 0.00 0.00 44 1010.0
20260901020049 89 163 6.0 10.0 0.00 0.00 0.00 43 1009.7
20260901014527 89 144 5.0 8.0 0.00 0.00 0.00 42 1009.6
20260901013026 90 145 4.0 8.0 0.00 0.00 0.00 41 1009.3
20260901011535 91 161 5.0 9.0 0.00 0.00 0.00 39 1009.2
20260901010024 92 187 5.0 8.0 0.00 0.00 0.00 38 1009.0
20260901004524 94 161 4.0 9.0 0.00 0.00 0.00 37 1009.0
20260901003023 95 172 6.0 10.0 0.00 0.00 0.00 35 1009.2
20260901001526 96 156 5.0 9.0 0.00 0.00 0.00 33 1009.0
20260901000021 97 169 4.0 11.0 0.00 0.00 0.00 32 1009.0
20260831234521 98 136 6.0 11.0 0.00 0.00 0.00 31 1009.2
20260831233035 98 186 8.0 15.0 0.00 0.00 0.00 30 1009.2
20260831231521 99 149 8.0 16.0 0.00 0.00 0.00 29 1009.3
20260831230019 99 183 5.0 14.0 0.00 0.00 0.00 29 1009.2
20260831224519 100 172 6.0 14.0 0.00 0.00 0.00 28 1009.2
20260831223019 101 202 6.0 12.0 0.00 0.00 0.00 28 1009.3
20260831221518 100 205 5.0 15.0 0.00 0.00 0.00 27 1009.4
20260831220022 100 167 9.0 13.0 0.00 0.00 0.00 28 1009.4
20260831214518 101 222 8.0 16.0 0.00 0.00 0.00 28 1009.7
20260831213029 101 252 9.0 14.0 0.00 0.00 0.00 27 1009.7
20260831211516 101 241 10.0 18.0 0.00 0.00 0.00 27 1009.6
20260831210020 101 234 9.0 20.0 0.00 0.00 0.00 26 1009.7
20260831204515 101 211 9.0 20.0 0.00 0.00 0.00 27 1009.8
20260831203013 100 160 11.0 22.0 0.00 0.00 0.00 26 1009.8
20260831201516 100 175 7.0 25.0 0.00 0.00 0.00 28 1010.0
20260831200021 101 186 9.0 16.0 0.00 0.00 0.00 28 1010.1
20260831194522 100 162 9.0 18.0 0.00 0.00 0.00 29 1010.4
20260831193011 100 182 9.0 22.0 0.00 0.00 0.00 30 1010.6
20260831191511 100 172 7.0 18.0 0.00 0.00 0.00 30 1010.6
20260831190008 100 181 7.0 16.0 0.00 0.00 0.00 31 1010.6
20260831184506 100 206 6.0 20.0 0.00 0.00 0.00 31 1010.7
20260831183001 99 196 8.0 23.0 0.00 0.00 0.00 32 1010.9
20260831181559 99 207 10.0 20.0 0.00 0.00 0.00 34 1011.0
20260831180059 98 196 11.0 21.0 0.00 0.00 0.00 34 1011.2
20260831174607 97 172 9.0 15.0 0.00 0.00 0.00 37 1011.5
20260831173102 97 207 6.0 13.0 0.00 0.00 0.00 38 1011.8
20260831171549 95 214 8.0 15.0 0.00 0.00 0.00 39 1011.8
20260831170052 94 205 8.0 16.0 0.00 0.00 0.00 40 1012.1
20260831164544 93 267 8.0 13.0 0.00 0.00 0.00 41 1012.0
20260831163049 92 236 6.0 16.0 0.00 0.00 0.00 43 1012.1
20260831161540 92 228 7.0 14.0 0.00 0.00 0.00 44 1012.2
20260831160037 91 234 7.0 12.0 0.00 0.00 0.00 43 1012.4
20260831154535 90 211 6.0 15.0 0.00 0.00 0.00 45 1012.3
20260831153031 89 227 9.0 14.0 0.00 0.00 0.00 45 1012.2
20260831151533 89 178 7.0 15.0 0.00 0.00 0.00 45 1012.2
20260831150025 88 193 5.0 12.0 0.00 0.00 0.00 48 1012.2
20260831144529 87 209 6.0 12.0 0.00 0.00 0.00 49 1012.1
20260831143026 85 192 3.0 10.0 0.00 0.00 0.00 52 1012.1
20260831141519 84 168 4.0 10.0 0.00 0.00 0.00 53 1012.2
20260831140017 82 213 6.0 10.0 0.00 0.00 0.00 53 1012.2
20260831134517 82 208 3.0 11.0 0.00 0.00 0.00 54 1012.3
20260831133015 81 183 5.0 13.0 0.00 0.00 0.00 55 1012.2
20260831131516 79 161 4.0 7.0 0.00 0.00 0.00 58 1012.3
20260831130018 78 182 1.0 7.0 0.00 0.00 0.00 59 1012.3
20260831124514 77 170 3.0 6.0 0.00 0.00 0.00 61 1012.2
20260831123012 76 161 4.0 6.0 0.00 0.00 0.00 62 1012.2
20260831121510 76 146 1.0 3.0 0.00 0.00 0.00 61 1012.2
20260831120014 77 198 0.0 3.0 0.00 0.00 0.00 59 1012.1
20260831114503 77 221 1.0 4.0 0.00 0.00 0.00 58 1011.8
20260831113105 78 221 1.0 4.0 0.00 0.00 0.00 57 1011.5
20260831111613 78 242 3.0 6.0 0.00 0.00 0.00 57 1011.5
20260831110137 78 221 2.0 5.0 0.00 0.00 0.00 57 1011.3
20260831104556 78 224 1.0 5.0 0.00 0.00 0.00 57 1011.0
20260831103059 79 238 2.0 7.0 0.00 0.00 0.00 56 1010.9
20260831101552 79 219 3.0 6.0 0.00 0.00 0.00 56 1010.9
20260831100059 79 210 3.0 6.0 0.00 0.00 0.00 56 1010.7
20260831094547 80 215 3.0 6.0 0.00 0.00 0.00 55 1010.6
20260831093045 80 221 2.0 6.0 0.00 0.00 0.00 55 1010.4
20260831091549 80 242 2.0 5.0 0.00 0.00 0.00 54 1010.3
20260831090040 81 240 3.0 7.0 0.00 0.00 0.00 53 1010.2
20260831084549 81 217 4.0 9.0 0.00 0.00 0.00 53 1009.9
20260831083046 82 241 3.0 8.0 0.00 0.00 0.00 52 1009.9
20260831081542 82 171 6.0 12.0 0.00 0.00 0.00 52 1009.8
20260831080033 82 205 6.0 11.0 0.00 0.00 0.00 51 1009.7
20260831074539 83 185 5.0 12.0 0.00 0.00 0.00 50 1009.8
20260831073058 83 207 6.0 11.0 0.00 0.00 0.00 50 1009.9
20260831071528 84 201 5.0 15.0 0.00 0.00 0.00 48 1010.0
20260831070032 85 215 7.0 12.0 0.00 0.00 0.00 48 1010.3
20260831064535 85 244 5.0 12.0 0.00 0.00 0.00 48 1010.2
20260831063023 84 233 7.0 13.0 0.00 0.00 0.00 49 1009.8
20260831061530 84 175 4.0 12.0 0.00 0.00 0.00 50 1009.6
20260831060015 84 216 7.0 14.0 0.00 0.00 0.00 49 1009.6
20260831054512 84 161 6.0 14.0 0.00 0.00 0.00 50 1009.0
20260831053018 84 211 5.0 13.0 0.00 0.00 0.00 50 1008.9